Вернуться в каталог

FENGYUN 1C DEB

LostPO
NORAD 37898·DEBRIS·🇨🇳 China

Запущен May 10, 1999 с Taiyuan Satellite Launch Center

Loading…

Ближайшие Пролёты (ближайшие 24 часа)

TLE

УстаревшееSource: Space-Track

Эпоха: Mar 20, 2019, 04:54 UTC

1 37898U 99025EMX 19079.20430704  .00000458  00000-0  32465-3 0  9996
2 37898  98.3427  64.4581 0124655  39.9750 321.0511 13.98361503548452

Отслеживайте FENGYUN 1C DEB в реальном времени с AllMySat

Download on the App Store